Regional Weather Roundup
Issued by NWS

Home | Current Version | Previous Version | Text Only | Print | Product List | Glossary Off
Versions: 1 2 3 4 5 6 7 8 9 10 11 12 13 14 15 16 17 18 19 20 21 22 23 24 25 26 27 28 29 30 31 32 33 34 35 36 37 38 39 40 41 42 43 44 45 46 47 48 49 50

000
ASUS45 KTFX 191619
RWRMT
MONTANA HOURLY WEATHER ROUNDUP
NATIONAL WEATHER SERVICE GREAT FALLS MT
1019 AM MDT SAT APR 19 2014

NOTE: "FAIR" INDICATES FEW OR NO CLOUDS BELOW 12000 FEET WITH NO
SIGNIFICANT WEATHER AND/OR OBSTRUCTIONS TO VISIBILITY.

* THESE STATIONS ARE NOT UNDER NWS QUALITY CONTROL. THEY DO NOT
   REPORT WEATHER SUCH AS PRECIPITATION OR FOG.

MTZ001>007-043-191700-
WEST OF THE DIVIDE
CITY           SKY/WX    TMP DP  RH WIND       PRES   REMARKS
KALISPELL      SUNNY     43  27  53 S6        29.97F
MISSOULA       SUNNY     37  27  67 CALM      30.02F
BUTTE          PTCLDY    37  16  42 CALM      29.98F
MULLAN PASS    SUNNY     32  21  64 VRB6      29.90S WCI  26
* ESSEX        N/A       35  29  79 NE2        N/A
* LINCOLN      N/A       39  18  43 S4         N/A
* LOOKOUT PASS N/A       34  26  73 S4G9       N/A
* PLAINS APT   SUNNY     39  27  62 CALM      29.99F
* POLSON       N/A       41  22  47 S3         N/A
* SEELEY LAKE  N/A       36  23  59 S1         N/A
* THOMP F APT  SUNNY     46  16  30 S2         N/A
* YAAK HILL    N/A       32  30  92 S1         N/A
$$

MTZ008-052>055-191700-
SOUTHWEST MONTANA
CITY           SKY/WX    TMP DP  RH WIND       PRES   REMARKS
BOZEMAN        SUNNY     46  12  25 VRB3      29.99F
DILLON         SUNNY     45  12  26 S7        29.99F
W YELLOWSTONE  N/A       43  24  47 SW4G10     N/A
* THREE FORKS  PTCLDY    43  18  37 N/A        N/A
* BOULDER HILL N/A       38   8  29 SW15       N/A   WCI  29
* MONIDA PASS  N/A       39  10  30 SE9        N/A   WCI  33
* RAYNOLDS PAS N/A       33  16  50 S12        N/A   WCI  24
* WHITEHALL    N/A       44  16  32 SW4        N/A
* WISE RIVER   N/A       29  17  61 NW4        N/A
$$

MTZ009>010-012-014-046-048-049-054-191700-
EAST SLOPES AND CENTRAL MONTANA
CITY           SKY/WX    TMP DP  RH WIND       PRES   REMARKS
CUT BANK       SUNNY     48  18  30 W17       29.89F
GREAT FALLS    SUNNY     48  14  25 SW17G23   29.92F
HELENA         SUNNY     41  14  33 CALM      29.98S
MALMSTROM AFB  SUNNY     50  12  22 S15G23    29.90F
* CONRAD       SUNNY     45  25  45 N/A        N/A
* DEARBORN     N/A       49  11  21 SW17G24    N/A
* EAST GLACIER N/A       39  14  36 W17G27     N/A   WCI  30
* MONARCH      N/A       41   4  21 W14G21     N/A
* PENDROY      N/A       45  18  34 E4         N/A
* ROGERS PASS  N/A       37  11  34 SE11G18    N/A   WCI  29
* SAINT MARY   N/A       40  21  47 S9G19      N/A   WCI  34
* SWEET GRASS  N/A       44  23  43 W10G19     N/A
* WHITE SULPH  N/A       44  10  25 S13G19     N/A
$$

MTZ011-013-016-021-035-040-045-047-050-051-191700-
NORTH CENTRAL MONTANA
CITY           SKY/WX    TMP DP  RH WIND       PRES   REMARKS
HAVRE          SUNNY     46  30  54 SW14      29.93F
LEWISTOWN      SUNNY     48   7  19 SW12G20   29.95F
* CHINOOK      SUNNY     46  32  58 W14       29.94S
* FORT BENTON  SUNNY     50  16  26 SW10      29.95F
* MALTA APT    SUNNY     45  30  56 W10G18    29.91S
* CHESTER      N/A       42  28  58 W4G10      N/A
* DENTON       N/A       50  14  24 SW19G24    N/A
* GEYSER       N/A       48  12  23 W13G20     N/A
* JUDITH GAP   N/A       47  10  22 NW2        N/A
* LOMA         N/A       47  20  34 S6         N/A
$$

MTZ017>020-022>027-061-062-191700-
NORTHEAST MONTANA
CITY           SKY/WX    TMP DP  RH WIND       PRES   REMARKS
GLASGOW        CLOUDY    43  36  76 W10       29.93R
GLENDIVE       SUNNY     48  34  59 W20G26    29.97R
JORDAN         SUNNY     52  28  40 W14       29.94S
SIDNEY         CLOUDY    45  36  71 W18G26    29.93R
WOLF POINT     SUNNY     46  36  68 W16G26    29.93R
* BEAVER HILL  N/A       45  32  60 W24G34     N/A
* CIRCLE       N/A       44  37  76 W16        N/A
* LINDSAY DVD  N/A       44  33  65 W27G34     N/A
* NAVAJO       N/A       38  32  79 NW22G29    N/A   WCI  27
* SACO         N/A       43  34  71 W14        N/A
* SCOBEY APT   SUNNY     39  30  70 W18G26    29.87R WCI  30
$$

MTZ028>042-056>058-191700-
SOUTHCENTRAL AND SOUTHEAST MONTANA
CITY           SKY/WX    TMP DP  RH WIND       PRES   REMARKS
BAKER          PTCLDY    50  27  41 W24G37    29.97R
BILLINGS       SUNNY     46  18  33 S6        30.00S
LIVINGSTON     SUNNY     48  14  25 NW8       29.97F
MILES CITY     SUNNY     52  27  38 NW17      29.97F
* EKALAKA APT  SUNNY     50  19  29 W24G29    29.97R
* LAUREL APT   SUNNY     45  18  34 N/A        N/A
* ROUNDUP APT  SUNNY     48  10  21 N/A        N/A
* HYSHAM       N/A       48  18  30 W4         N/A
* LAME DEER    N/A       45  15  30 W6G11      N/A
* REED POINT   N/A       52  19  27 W8         N/A
* ROSCOE HILL  N/A       44  13  28 E15        N/A
$$

REGIONAL REPORTS...DAKOTAS
CITY           SKY/WX    TMP DP  RH WIND       PRES   REMARKS
WILLISTON      CLOUDY    45  36  71 W14       29.88R
DICKINSON      SUNNY     52  30  43 W31G38    29.89R
CROSBY         CLOUDY    39  39 100 NW20G29   29.85R WCI  29
TIOGA          CLOUDY    41  41 100 W20G35    29.86R
WATFORD CITY   CLOUDY    41  36  82 W18       29.87R
BISMARCK       SUNNY     55  28  35 W25G35    29.91R
GRAND FORKS    SUNNY     55  39  55 SW16      29.79S
FARGO          PTCLDY    59  37  44 W13       29.87R
BUFFALO SD     SUNNY     54  21  27 W29       29.94R
RAPID CITY     PTCLDY    55  14  20 NW7       30.03S
$$

REGIONAL REPORTS...WYOMING/IDAHO/WASHINGTON
CITY           SKY/WX    TMP DP  RH WIND       PRES   REMARKS
GILLETTE       SUNNY     50  14  24 CALM      30.04R
SHERIDAN       SUNNY     52  16  24 CALM      30.02F
CODY           SUNNY     48  27  44 SE3       30.00S
YELLOWSTONE LA SUNNY     30  18  61 E3        30.09S
SALMON         SUNNY     39  18  43 CALM      30.04F
MULLAN PASS    SUNNY     32  21  64 VRB6      29.90S WCI  26
SAND POINT     SUNNY     43  34  71 NE7       29.95F
SPOKANE        CLOUDY    43  30  60 E10       29.88F
$$

REGIONAL REPORTS...ALBERTA
CITY           SKY/WX    TMP DP  RH WIND       PRES   REMARKS
CALGARY        PTSUNNY   37  30  76 S9        29.83F WCI  30
LETHBRIDGE     PTSUNNY   46  32  58 W17G23    29.86F
MEDICINE HAT   PTSUNNY   37  32  82 SW6       29.92F WCI  32
EDMONTON       PTSUNNY   36  30  79 S2        29.81S
WATERTON GATE  N/A       43  19  38 SW14G22    N/A
CARDSTON       N/A       46  25  44 W8         N/A
MILK RIVER     N/A       48  23  37 W15        N/A
$$

REGIONAL REPORTS...SASKATCHEWAN
CITY           SKY/WX    TMP DP  RH WIND       PRES   REMARKS
SWIFT CURRENT  CLOUDY    32  32 100 W17G23    29.86R WCI  21
REGINA         CLOUDY    34  30  85 NW22G30   29.82R WCI  22
VAL MARIE      N/A       39  32  76 W14        N/A   WCI  31
ASSINIBOIA     N/A       36  32  85 W16G23     N/A   WCI  26
CORONACH       N/A       37  34  89 NW18G26    N/A   WCI  27

$$




USA.gov is the U.S. government's official web portal to all federal, state and local government web resources and services.